sat.trackr.live / text

‹ back to catalog

STARLINK-33835

NORAD 63645 · 2025-083M

PAYLOAD ACTIVE UNKNOWN

§ Identity

Operator
Country
US
Launch date
2025-04-25
Launch site
AFETR
Launch vehicle
Mass (kg)
RCS (m²)

Purposes: comms

External: N2YO · Heavens-Above · Gunter

§ Orbital elements

Epoch: 2026-05-25T02:39:58.850784Z

Period
94.27 min
Inclination
42.9998°
Eccentricity
0.0001097
Mean motion
15.27590907 rev/d
Perigee alt
482.3 km
Apogee alt
483.8 km
Semi-major
6,861.2 km
B*
1.4624e-3
RAAN
293.6926°
Arg perigee
283.7484°
Mean anomaly
76.3245°
Rev number
6,178

§ Raw data

STARLINK-338351 63645U 25083M   26145.11109781  .00040213  00000+0  14624-2 0  99962 63645  42.9998 293.6926 0001097 283.7484  76.3245 15.27590907 61781

JSON: /api/v1/satellites/63645 · /tle

For live sub-satellite position, see the globe view (requires WebGL).

§ Visibility from observer

Set your observer location to see the next 7 days of passes ≥ 10°. The values pass through the URL so the page stays shareable.

No JS? Fill the form by hand. The geolocation button needs JavaScript.